Newark, NJ

6:13 PM EDT on October 13, 2019 (GMT -0400)
Newark International

Weather History for KEWR - May, 2019

Change the Weather History Date:

Friday, May 24, 2019

  Actual Average Record
Temperature  
Mean Temperature 69 °F 65 °F  
Max Temperature 78 °F 75 °F 93 °F (1964)
Min Temperature 60 °F 56 °F 40 °F (1963)
Degree Days  
Heating Degree Days 0 3  
Month to date heating degree days 104 120  
Since 1 July heating degree days 4698 4840  
Cooling Degree Days 4 3  
Month to date cooling degree days 36 38  
Year to date cooling degree days 51 50  
Growing Degree Days 19 (Base 50)    
Moisture  
Dew Point 52 °F    
Average Humidity 55    
Maximum Humidity 93    
Minimum Humidity 36    
Precipitation  
Precipitation 0.00 in 0.14 in 2.58 in (1978)
Month to date precipitation 5.24 3.10  
Year to date precipitation 20.89 17.90  
Snow  
Snow 0.00 in 0.00 in 0.00 in (2002)
Month to date snowfall 0.0 0.0  
Since 1 July snowfall 22.0 28.5  
Snow Depth 0.00 in    
Sea Level Pressure  
Sea Level Pressure 29.93 in    
Wind  
Wind Speed 14 mph ()    
Max Wind Speed 33 mph    
Max Gust Speed 46 mph    
Visibility 10.0 miles    
Events      
T = Trace of Precipitation, MM = Missing Value Source: Averaged Metar Reports

Daily Weather History Graph

Daily Weather History Graph

Search for Another Location

Airport or City:

Astronomy

May. 24, 2019 Rise Set
Actual Time 5:32 AM EDT 8:15 PM EDT
Civil Twilight 5:00 AM EDT 8:47 PM EDT
Nautical Twilight 4:20 AM EDT 9:27 PM EDT
Astronomical Twilight 3:35 AM EDT 10:12 PM EDT
Moon 12:38 AM EDT (5/24) 10:30 AM EDT (5/24)
Length of Visible Light 15h 46m
Length of Day
14h 42m
Waning Gibbous, 69% of the Moon is Illuminated
May 24
Waning Gibbous
May 26
Last Quarter
Jun 3
New
Jun 10
First Quarter
Jun 17
Full

Hourly Weather History & Observations

Time (EDT) Temp. Dew Point Humidity Pressure Visibility Wind Dir Wind Speed Gust Speed Precip Events Conditions
12:51 AM 69.1 °F 66.0 °F 90% 29.80 in 10.0 mi WSW 15.0 mph - N/A   Partly Cloudy
1:51 AM 69.1 °F 66.0 °F 90% 29.80 in 10.0 mi WSW 9.2 mph - N/A   Scattered Clouds
2:51 AM 68.0 °F 64.9 °F 90% 29.80 in 10.0 mi WSW 8.1 mph - N/A   Scattered Clouds
3:51 AM 66.9 °F 64.0 °F 90% 29.79 in 10.0 mi WSW 8.1 mph - N/A   Scattered Clouds
4:51 AM 68.0 °F 60.1 °F 76% 29.81 in 10.0 mi West 6.9 mph - N/A   Partly Cloudy
5:51 AM 66.9 °F 54.0 °F 63% 29.83 in 10.0 mi West 10.4 mph - N/A   Scattered Clouds
6:51 AM 68.0 °F 53.1 °F 59% 29.86 in 10.0 mi WNW 9.2 mph - N/A   Partly Cloudy
7:51 AM 69.1 °F 48.9 °F 49% 29.87 in 10.0 mi NW 20.7 mph 27.6 mph N/A   Scattered Clouds
8:51 AM 71.1 °F 48.9 °F 45% 29.88 in 10.0 mi WNW 18.4 mph 28.8 mph N/A   Scattered Clouds
9:51 AM 72.0 °F 48.0 °F 43% 29.87 in 10.0 mi WNW 25.3 mph 34.5 mph N/A   Partly Cloudy
10:51 AM 73.9 °F 48.9 °F 41% 29.89 in 10.0 mi NW 19.6 mph 34.5 mph N/A   Scattered Clouds
11:51 AM 73.9 °F 48.9 °F 41% 29.89 in 10.0 mi NW 26.5 mph 36.8 mph N/A   Scattered Clouds
12:51 PM 77.0 °F 48.9 °F 37% 29.92 in 10.0 mi NNW 28.8 mph 36.8 mph N/A   Scattered Clouds
1:51 PM 75.9 °F 48.9 °F 38% 29.92 in 10.0 mi NW 32.2 mph 46.0 mph N/A   Mostly Cloudy
2:51 PM 75.9 °F 48.9 °F 38% 29.94 in 10.0 mi NW 25.3 mph 35.7 mph N/A   Mostly Cloudy
3:51 PM 75.0 °F 48.9 °F 40% 29.96 in 10.0 mi NW 23.0 mph 33.4 mph N/A   Mostly Cloudy
4:51 PM 73.9 °F 50.0 °F 43% 29.98 in 10.0 mi NNW 23.0 mph 29.9 mph N/A   Mostly Cloudy
5:51 PM 73.9 °F 48.9 °F 41% 30.01 in 10.0 mi NNW 20.7 mph 29.9 mph N/A   Mostly Cloudy
6:51 PM 73.0 °F 48.9 °F 42% 30.03 in 10.0 mi NNW 19.6 mph 26.5 mph N/A   Scattered Clouds
7:51 PM 70.0 °F 48.9 °F 47% 30.06 in 10.0 mi NNW 17.3 mph - N/A   Scattered Clouds
8:51 PM 66.9 °F 48.9 °F 52% 30.10 in 10.0 mi NNW 15.0 mph - N/A   Partly Cloudy
9:51 PM 64.9 °F 48.0 °F 54% 30.12 in 10.0 mi NNW 18.4 mph - N/A   Scattered Clouds
10:51 PM 64.0 °F 48.0 °F 56% 30.12 in 10.0 mi North 15.0 mph - N/A   Partly Cloudy
11:51 PM 63.0 °F 48.0 °F 58% 30.12 in 10.0 mi North 11.5 mph - N/A   Partly Cloudy